CEB574 RPVM-RPLL

Flight info

Callsign CEB574
Flight time 1h 2m
Altitude 34000
Route MULOP4P MULOP W11 CONDE CONDE3R
Aircraft A339/H-SADE1E2E3GHIJ3J5M1P2RWXY/LB2D1

Departure

Time 2026-05-06 13:19
Airport Mactan Cebu International Airport (RPVM)

Arrival

Time 2026-05-06 14:22
Airport Ninoy Aquino International Airport (RPLL)
Time Latitude Longitude Altitude Speed Heading
2026-05-06 12:46 10.31408 123.97840 52 ft 0 kts 315°
2026-05-06 13:06 10.31408 123.97841 52 ft 0 kts 315°
2026-05-06 13:07 10.31406 123.97842 52 ft 1 kts 315°
2026-05-06 13:08 10.31396 123.97852 52 ft 2 kts 315°
2026-05-06 13:08 10.31388 123.97860 52 ft 0 kts 315°
2026-05-06 13:08 10.31379 123.97870 51 ft 2 kts 300°
2026-05-06 13:08 10.31374 123.97884 51 ft 2 kts 279°
2026-05-06 13:09 10.31373 123.97899 51 ft 2 kts 262°
2026-05-06 13:09 10.31377 123.97914 51 ft 2 kts 243°
2026-05-06 13:09 10.31384 123.97926 50 ft 0 kts 226°
2026-05-06 13:09 10.31388 123.97929 50 ft 0 kts 224°
2026-05-06 13:13 10.31380 123.97921 50 ft 3 kts 224°
2026-05-06 13:13 10.31353 123.97904 51 ft 5 kts 196°
2026-05-06 13:13 10.31306 123.97918 50 ft 9 kts 144°
2026-05-06 13:13 10.31250 123.97972 48 ft 10 kts 140°
2026-05-06 13:14 10.31185 123.97965 47 ft 9 kts 223°
2026-05-06 13:14 10.31134 123.97914 47 ft 11 kts 224°
2026-05-06 13:14 10.31070 123.97850 47 ft 13 kts 225°
2026-05-06 13:14 10.30997 123.97775 46 ft 15 kts 225°
2026-05-06 13:15 10.30915 123.97692 44 ft 17 kts 224°
2026-05-06 13:15 10.30823 123.97601 41 ft 19 kts 225°
2026-05-06 13:15 10.30722 123.97501 37 ft 21 kts 225°
2026-05-06 13:15 10.30615 123.97392 36 ft 21 kts 225°
2026-05-06 13:16 10.30508 123.97285 36 ft 21 kts 225°
2026-05-06 13:16 10.30401 123.97178 34 ft 22 kts 225°
2026-05-06 13:16 10.30291 123.97068 33 ft 21 kts 225°
2026-05-06 13:16 10.30185 123.96960 33 ft 21 kts 225°
2026-05-06 13:17 10.30080 123.96855 33 ft 21 kts 225°
2026-05-06 13:17 10.29977 123.96751 33 ft 18 kts 225°
2026-05-06 13:17 10.29903 123.96705 33 ft 6 kts 167°
2026-05-06 13:17 10.29857 123.96734 33 ft 8 kts 138°
2026-05-06 13:18 10.29807 123.96783 33 ft 11 kts 135°
2026-05-06 13:18 10.29748 123.96845 33 ft 13 kts 134°
2026-05-06 13:18 10.29724 123.96893 33 ft 6 kts 75°
2026-05-06 13:18 10.29751 123.96932 33 ft 8 kts 48°
2026-05-06 13:19 10.29886 123.97070 33 ft 59 kts 44°
2026-05-06 13:19 10.30345 123.97528 36 ft 121 kts 44°
2026-05-06 13:19 10.31063 123.98253 92 ft 164 kts 45°
2026-05-06 13:19 10.31875 123.99078 632 ft 164 kts 45°
2026-05-06 13:20 10.32642 123.99857 1337 ft 156 kts 45°
2026-05-06 13:20 10.33396 124.00620 1929 ft 153 kts 45°
2026-05-06 13:20 10.34178 124.01411 2207 ft 166 kts 45°
2026-05-06 13:20 10.35096 124.02209 2473 ft 182 kts 25°
2026-05-06 13:21 10.36416 124.02255 2735 ft 204 kts 345°
2026-05-06 13:21 10.37817 124.01729 3044 ft 222 kts 343°
2026-05-06 13:21 10.39337 124.01173 3378 ft 240 kts 343°
2026-05-06 13:21 10.40970 124.00600 3735 ft 258 kts 344°
2026-05-06 13:22 10.42719 124.00001 4247 ft 269 kts 344°
2026-05-06 13:22 10.44495 123.99396 4956 ft 272 kts 344°
2026-05-06 13:22 10.46302 123.98783 5697 ft 273 kts 344°
2026-05-06 13:22 10.48120 123.98172 6408 ft 276 kts 345°
2026-05-06 13:23 10.49945 123.97559 7085 ft 279 kts 345°
2026-05-06 13:23 10.51807 123.96935 7755 ft 283 kts 345°
2026-05-06 13:23 10.53696 123.96303 8416 ft 287 kts 344°
2026-05-06 13:23 10.55591 123.95667 9049 ft 290 kts 345°
2026-05-06 13:24 10.57512 123.95023 9668 ft 294 kts 345°
2026-05-06 13:24 10.59469 123.94367 10291 ft 298 kts 344°
2026-05-06 13:24 10.61472 123.93697 10650 ft 311 kts 345°
2026-05-06 13:24 10.63582 123.92950 10964 ft 328 kts 338°
2026-05-06 13:25 10.65583 123.91730 11492 ft 338 kts 324°
2026-05-06 13:25 10.67268 123.90050 12143 ft 343 kts 314°
2026-05-06 13:25 10.68810 123.88230 12753 ft 346 kts 312°
2026-05-06 13:25 10.70382 123.86334 13365 ft 349 kts 312°
2026-05-06 13:26 10.71941 123.84457 13954 ft 352 kts 313°
2026-05-06 13:26 10.73535 123.82556 14529 ft 355 kts 313°
2026-05-06 13:26 10.75159 123.80630 15095 ft 359 kts 313°
2026-05-06 13:26 10.76796 123.78693 15662 ft 362 kts 313°
2026-05-06 13:27 10.78438 123.76753 16229 ft 364 kts 313°
2026-05-06 13:27 10.80081 123.74812 16777 ft 367 kts 313°
2026-05-06 13:27 10.81751 123.72842 17314 ft 370 kts 313°
2026-05-06 13:27 10.83455 123.70831 17857 ft 374 kts 313°
2026-05-06 13:28 10.85146 123.68833 18394 ft 377 kts 312°
2026-05-06 13:28 10.86869 123.66797 18936 ft 379 kts 313°
2026-05-06 13:28 10.88574 123.64780 19470 ft 382 kts 313°
2026-05-06 13:28 10.90324 123.62710 19992 ft 385 kts 312°
2026-05-06 13:29 10.92063 123.60651 20503 ft 387 kts 312°
2026-05-06 13:29 10.93816 123.58575 20996 ft 390 kts 312°
2026-05-06 13:29 10.95591 123.56473 21483 ft 393 kts 312°
2026-05-06 13:29 10.97384 123.54350 21963 ft 396 kts 312°
2026-05-06 13:30 10.99223 123.52280 22427 ft 398 kts 316°
2026-05-06 13:30 11.01259 123.50365 22901 ft 399 kts 322°
2026-05-06 13:30 11.03466 123.48650 23377 ft 400 kts 326°
2026-05-06 13:30 11.05770 123.47029 23851 ft 402 kts 327°
2026-05-06 13:31 11.08083 123.45427 24310 ft 404 kts 327°
2026-05-06 13:31 11.10418 123.43808 24766 ft 406 kts 327°
2026-05-06 13:31 11.12764 123.42178 25211 ft 408 kts 327°
2026-05-06 13:31 11.15121 123.40537 25650 ft 410 kts 326°
2026-05-06 13:32 11.17465 123.38904 26071 ft 412 kts 326°
2026-05-06 13:32 11.19843 123.37244 26490 ft 415 kts 326°
2026-05-06 13:32 11.22232 123.35574 26905 ft 416 kts 326°
2026-05-06 13:32 11.24627 123.33901 27302 ft 419 kts 326°
2026-05-06 13:33 11.27028 123.32222 27693 ft 421 kts 326°
2026-05-06 13:33 11.29462 123.30520 28086 ft 423 kts 326°
2026-05-06 13:33 11.31880 123.28828 28465 ft 425 kts 325°
2026-05-06 13:33 11.34314 123.27125 28849 ft 426 kts 325°
2026-05-06 13:34 11.36782 123.25397 29207 ft 429 kts 325°
2026-05-06 13:34 11.39254 123.23666 29537 ft 432 kts 325°
2026-05-06 13:34 11.41728 123.21933 29860 ft 435 kts 325°
2026-05-06 13:34 11.44227 123.20183 30190 ft 438 kts 325°
2026-05-06 13:35 11.46747 123.18417 30518 ft 441 kts 325°
2026-05-06 13:35 11.49288 123.16636 30887 ft 442 kts 325°
2026-05-06 13:35 11.51815 123.14865 31330 ft 442 kts 324°
2026-05-06 13:35 11.54349 123.13088 31780 ft 441 kts 324°
2026-05-06 13:36 11.56878 123.11315 32200 ft 441 kts 324°
2026-05-06 13:36 11.59406 123.09541 32579 ft 442 kts 324°
2026-05-06 13:36 11.61948 123.07758 32957 ft 444 kts 324°
2026-05-06 13:36 11.64530 123.05945 33326 ft 446 kts 324°
2026-05-06 13:37 11.67079 123.04155 33722 ft 447 kts 324°
2026-05-06 13:37 11.69657 123.02344 33870 ft 449 kts 324°
2026-05-06 13:37 11.72217 123.00546 33870 ft 449 kts 324°
2026-05-06 13:38 11.77357 122.96936 33873 ft 449 kts 324°
2026-05-06 13:38 11.82509 122.93314 33874 ft 449 kts 324°
2026-05-06 13:39 11.87644 122.89703 33875 ft 448 kts 324°
2026-05-06 13:39 11.92797 122.86078 33876 ft 448 kts 324°
2026-05-06 13:40 11.97944 122.82455 33879 ft 448 kts 324°
2026-05-06 13:40 12.03055 122.78856 33879 ft 448 kts 324°
2026-05-06 13:41 12.08189 122.75239 33879 ft 447 kts 324°
2026-05-06 13:41 12.13319 122.71623 33881 ft 447 kts 324°
2026-05-06 13:42 12.18459 122.67996 33881 ft 447 kts 324°
2026-05-06 13:42 12.23564 122.64394 33881 ft 447 kts 324°
2026-05-06 13:43 12.28674 122.60785 33883 ft 447 kts 324°
2026-05-06 13:43 12.33784 122.57172 33884 ft 446 kts 324°
2026-05-06 13:44 12.38911 122.53553 33886 ft 446 kts 324°
2026-05-06 13:44 12.44036 122.49937 33888 ft 447 kts 324°
2026-05-06 13:45 12.49146 122.46328 33890 ft 447 kts 324°
2026-05-06 13:45 12.56806 122.40909 33865 ft 447 kts 324°
2026-05-06 13:46 12.59369 122.39095 33593 ft 446 kts 324°
2026-05-06 13:46 12.61911 122.37292 33292 ft 444 kts 324°
2026-05-06 13:46 12.64444 122.35498 32964 ft 440 kts 324°
2026-05-06 13:46 12.66967 122.33710 32574 ft 438 kts 324°
2026-05-06 13:47 12.69454 122.31948 32146 ft 437 kts 324°
2026-05-06 13:47 12.71983 122.30154 31654 ft 438 kts 324°
2026-05-06 13:47 12.74486 122.28380 31158 ft 438 kts 324°
2026-05-06 13:47 12.76969 122.26618 30645 ft 438 kts 324°
2026-05-06 13:48 12.79481 122.24836 30124 ft 438 kts 324°
2026-05-06 13:48 12.81970 122.23070 29761 ft 433 kts 324°
2026-05-06 13:48 12.84443 122.21315 29417 ft 429 kts 324°
2026-05-06 13:48 12.86881 122.19584 29068 ft 424 kts 324°
2026-05-06 13:49 12.89289 122.17875 28725 ft 420 kts 324°
2026-05-06 13:49 12.91672 122.16182 28378 ft 417 kts 324°
2026-05-06 13:49 12.94061 122.14484 28013 ft 413 kts 324°
2026-05-06 13:49 12.96425 122.12803 27650 ft 410 kts 324°
2026-05-06 13:50 12.98739 122.11157 27294 ft 407 kts 324°
2026-05-06 13:50 13.01062 122.09506 26930 ft 405 kts 324°
2026-05-06 13:50 13.03392 122.07848 26572 ft 402 kts 325°
2026-05-06 13:50 13.05653 122.06239 26223 ft 399 kts 325°
2026-05-06 13:51 13.07943 122.04610 25878 ft 396 kts 325°
2026-05-06 13:51 13.10202 122.03001 25529 ft 393 kts 325°
2026-05-06 13:51 13.12433 122.01413 25181 ft 391 kts 325°
2026-05-06 13:51 13.14668 121.99822 24830 ft 388 kts 325°
2026-05-06 13:52 13.16885 121.98244 24481 ft 386 kts 326°
2026-05-06 13:52 13.19085 121.96677 24133 ft 384 kts 326°
2026-05-06 13:52 13.21271 121.95119 23788 ft 382 kts 326°
2026-05-06 13:52 13.23452 121.93565 23440 ft 380 kts 326°
2026-05-06 13:53 13.25630 121.92012 23091 ft 378 kts 326°
2026-05-06 13:53 13.27783 121.90477 22736 ft 377 kts 326°
2026-05-06 13:53 13.29909 121.88961 22382 ft 375 kts 326°
2026-05-06 13:53 13.32076 121.87415 22025 ft 374 kts 326°
2026-05-06 13:54 13.34201 121.85899 21672 ft 373 kts 326°
2026-05-06 13:54 13.36324 121.84386 21313 ft 372 kts 326°
2026-05-06 13:54 13.38457 121.82864 20953 ft 371 kts 326°
2026-05-06 13:54 13.40568 121.81358 20599 ft 370 kts 326°
2026-05-06 13:55 13.42678 121.79851 20240 ft 369 kts 326°
2026-05-06 13:55 13.44785 121.78346 19883 ft 368 kts 326°
2026-05-06 13:55 13.46891 121.76841 19527 ft 367 kts 326°
2026-05-06 13:55 13.48989 121.75341 19173 ft 366 kts 326°
2026-05-06 13:56 13.51062 121.73859 18818 ft 365 kts 326°
2026-05-06 13:56 13.53158 121.72361 18462 ft 364 kts 326°
2026-05-06 13:56 13.55218 121.70887 18108 ft 363 kts 326°
2026-05-06 13:56 13.57305 121.69394 17753 ft 362 kts 326°
2026-05-06 13:57 13.59363 121.67921 17410 ft 361 kts 326°
2026-05-06 13:57 13.61415 121.66451 17067 ft 360 kts 326°
2026-05-06 13:57 13.63468 121.64982 16723 ft 359 kts 326°
2026-05-06 13:57 13.65491 121.63533 16654 ft 347 kts 326°
2026-05-06 13:58 13.67445 121.62130 16636 ft 335 kts 325°
2026-05-06 13:58 13.69270 121.60687 16570 ft 326 kts 321°
2026-05-06 13:58 13.70978 121.59165 16271 ft 325 kts 320°
2026-05-06 13:58 13.72674 121.57612 15912 ft 327 kts 320°
2026-05-06 13:59 13.74356 121.56067 15550 ft 328 kts 320°
2026-05-06 13:59 13.76068 121.54495 15257 ft 327 kts 320°
2026-05-06 13:59 13.77766 121.52939 14982 ft 325 kts 320°
2026-05-06 13:59 13.79449 121.51395 14704 ft 323 kts 320°
2026-05-06 14:00 13.81124 121.49860 14421 ft 321 kts 320°
2026-05-06 14:00 13.82772 121.48351 14142 ft 320 kts 320°
2026-05-06 14:00 13.84431 121.46832 13858 ft 318 kts 320°
2026-05-06 14:00 13.86086 121.45316 13581 ft 316 kts 320°
2026-05-06 14:01 13.87731 121.43809 13305 ft 314 kts 320°
2026-05-06 14:01 13.89366 121.42310 13030 ft 313 kts 320°
2026-05-06 14:01 13.90984 121.40826 12755 ft 311 kts 320°
2026-05-06 14:01 13.92594 121.39351 12483 ft 310 kts 320°
2026-05-06 14:02 13.94191 121.37886 12209 ft 308 kts 320°
2026-05-06 14:02 13.95805 121.36405 11931 ft 307 kts 320°
2026-05-06 14:02 13.97387 121.34954 11659 ft 306 kts 320°
2026-05-06 14:02 13.98974 121.33498 11375 ft 304 kts 320°
2026-05-06 14:03 14.00549 121.32052 11091 ft 303 kts 320°
2026-05-06 14:03 14.02125 121.30605 10812 ft 302 kts 320°
2026-05-06 14:03 14.03692 121.29144 10534 ft 302 kts 316°
2026-05-06 14:03 14.04964 121.27425 10249 ft 304 kts 301°
2026-05-06 14:04 14.05828 121.25461 10073 ft 301 kts 293°
2026-05-06 14:04 14.06581 121.23420 10063 ft 304 kts 292°
2026-05-06 14:04 14.07316 121.21390 10055 ft 305 kts 292°
2026-05-06 14:04 14.08059 121.19350 10048 ft 306 kts 292°
2026-05-06 14:05 14.08814 121.17300 10043 ft 306 kts 293°
2026-05-06 14:05 14.09578 121.15241 10040 ft 306 kts 293°
2026-05-06 14:05 14.10335 121.13205 10036 ft 306 kts 293°
2026-05-06 14:05 14.11100 121.11157 10032 ft 306 kts 293°
2026-05-06 14:06 14.11863 121.09107 10029 ft 306 kts 293°
2026-05-06 14:06 14.12634 121.07042 10028 ft 307 kts 293°
2026-05-06 14:06 14.13390 121.05016 10027 ft 307 kts 293°
2026-05-06 14:06 14.14161 121.02952 10026 ft 306 kts 293°
2026-05-06 14:07 14.14924 121.00903 10022 ft 306 kts 293°
2026-05-06 14:07 14.15687 120.98853 10018 ft 307 kts 293°
2026-05-06 14:07 14.16450 120.96809 10023 ft 307 kts 293°
2026-05-06 14:07 14.17353 120.94817 10004 ft 304 kts 310°
2026-05-06 14:08 14.18944 120.93450 10004 ft 296 kts 334°
2026-05-06 14:08 14.20721 120.92463 9823 ft 284 kts 335°
2026-05-06 14:08 14.22428 120.91509 9563 ft 273 kts 334°
2026-05-06 14:08 14.24066 120.90572 9155 ft 268 kts 334°
2026-05-06 14:09 14.25687 120.89629 8675 ft 267 kts 333°
2026-05-06 14:09 14.27307 120.88680 8199 ft 265 kts 333°
2026-05-06 14:09 14.28892 120.87755 7702 ft 262 kts 334°
2026-05-06 14:09 14.30472 120.86842 7212 ft 259 kts 333°
2026-05-06 14:10 14.32029 120.85904 6692 ft 258 kts 324°
2026-05-06 14:10 14.33154 120.84483 6256 ft 263 kts 294°
2026-05-06 14:10 14.33450 120.82623 6008 ft 264 kts 263°
2026-05-06 14:10 14.32812 120.80875 6003 ft 267 kts 233°
2026-05-06 14:11 14.31418 120.79627 6002 ft 267 kts 204°
2026-05-06 14:11 14.29630 120.79169 6020 ft 265 kts 182°
2026-05-06 14:11 14.27782 120.79091 6020 ft 264 kts 178°
2026-05-06 14:11 14.25944 120.79080 6010 ft 264 kts 177°
2026-05-06 14:12 14.24100 120.78977 5990 ft 266 kts 192°
2026-05-06 14:12 14.22443 120.78134 5868 ft 264 kts 222°
2026-05-06 14:12 14.21415 120.76662 5612 ft 251 kts 253°
2026-05-06 14:12 14.21249 120.74936 5377 ft 241 kts 284°
2026-05-06 14:13 14.21958 120.73423 5131 ft 234 kts 316°
2026-05-06 14:13 14.23155 120.72322 5002 ft 229 kts 325°
2026-05-06 14:13 14.24445 120.71330 5006 ft 232 kts 327°
2026-05-06 14:13 14.25822 120.70487 4985 ft 229 kts 347°
2026-05-06 14:14 14.27382 120.70445 4990 ft 223 kts 18°
2026-05-06 14:14 14.28844 120.70985 5007 ft 222 kts 25°
2026-05-06 14:14 14.30263 120.71640 5001 ft 221 kts 27°
2026-05-06 14:14 14.31659 120.72314 4999 ft 221 kts 27°
2026-05-06 14:15 14.33052 120.72993 4994 ft 221 kts 27°
2026-05-06 14:15 14.34397 120.73767 4991 ft 220 kts 37°
2026-05-06 14:15 14.35544 120.74815 4987 ft 216 kts 50°
2026-05-06 14:15 14.36428 120.76032 4964 ft 209 kts 57°
2026-05-06 14:16 14.37191 120.77306 4736 ft 211 kts 59°
2026-05-06 14:16 14.37934 120.78628 4459 ft 213 kts 60°
2026-05-06 14:16 14.38672 120.79962 4198 ft 214 kts 60°
2026-05-06 14:16 14.39406 120.81293 3897 ft 213 kts 60°
2026-05-06 14:17 14.40113 120.82576 3648 ft 198 kts 59°
2026-05-06 14:17 14.40778 120.83779 3433 ft 189 kts 59°
2026-05-06 14:17 14.41414 120.84930 3190 ft 182 kts 59°
2026-05-06 14:17 14.42039 120.86057 2944 ft 177 kts 59°
2026-05-06 14:18 14.42637 120.87137 2727 ft 170 kts 59°
2026-05-06 14:18 14.43216 120.88180 2507 ft 164 kts 60°
2026-05-06 14:18 14.43772 120.89181 2290 ft 159 kts 59°
2026-05-06 14:18 14.44308 120.90147 2087 ft 153 kts 60°
2026-05-06 14:19 14.44830 120.91089 1885 ft 145 kts 60°
2026-05-06 14:19 14.45322 120.91975 1702 ft 138 kts 60°
2026-05-06 14:19 14.45796 120.92829 1543 ft 138 kts 60°
2026-05-06 14:19 14.46276 120.93694 1380 ft 138 kts 62°
2026-05-06 14:20 14.46748 120.94546 1212 ft 138 kts 60°
2026-05-06 14:20 14.47234 120.95417 1036 ft 138 kts 62°
2026-05-06 14:20 14.47708 120.96272 860 ft 139 kts 63°
2026-05-06 14:20 14.48194 120.97150 681 ft 140 kts 63°
2026-05-06 14:21 14.48676 120.98017 503 ft 140 kts 63°
2026-05-06 14:21 14.49165 120.98896 323 ft 140 kts 62°
2026-05-06 14:21 14.49643 120.99756 156 ft 137 kts 63°
2026-05-06 14:21 14.50116 121.00607 46 ft 131 kts 63°
2026-05-06 14:22 14.50504 121.01311 50 ft 92 kts 60°
2026-05-06 14:22 14.50760 121.01708 58 ft 30 kts 44°
2026-05-06 14:22 14.50861 121.01784 60 ft 11 kts
2026-05-06 14:22 14.50928 121.01750 61 ft 12 kts 315°
2026-05-06 14:23 14.50990 121.01685 62 ft 12 kts 314°
2026-05-06 14:23 14.51053 121.01618 63 ft 13 kts 315°
2026-05-06 14:23 14.51119 121.01551 65 ft 13 kts 315°
2026-05-06 14:23 14.51186 121.01484 65 ft 13 kts 315°
2026-05-06 14:24 14.51253 121.01433 64 ft 10 kts 356°
2026-05-06 14:24 14.51309 121.01463 65 ft 9 kts 48°
2026-05-06 14:24 14.51346 121.01506 65 ft 9 kts 49°
2026-05-06 14:24 14.51401 121.01569 65 ft 11 kts 41°
2026-05-06 14:25 14.51462 121.01577 64 ft 8 kts 326°
2026-05-06 14:25 14.51516 121.01529 63 ft 11 kts 314°
2026-05-06 14:25 14.51575 121.01466 62 ft 10 kts 314°
2026-05-06 14:25 14.51608 121.01463 62 ft 3 kts 34°
2026-05-06 14:26 14.51624 121.01479 62 ft 4 kts 45°
2026-05-06 14:26 14.51648 121.01504 63 ft 5 kts 45°
2026-05-06 14:26 14.51659 121.01514 63 ft 0 kts 44°
2026-05-06 14:26 14.51660 121.01515 63 ft 0 kts 44°